Regional Weather Roundup
Issued by NWS Lake Charles, LA

Home | Current Version | Previous Version | Text Only | Print | Product List | Glossary On
Versions: 1 2 3 4 5 6 7 8 9 10 11 12 13 14 15 16 17 18 19 20 21 22 23 24 25 26 27 28 29 30 31 32 33 34 35 36 37 38 39 40 41 42 43 44 45 46 47 48 49 50
773
ASUS44 KLCH 271610
RWRLCH
REGIONAL WEATHER ROUNDUP
NATIONAL WEATHER SERVICE LAKE CHARLES LA
1100 AM CDT MON MAR 27 2017

Note: "fair" indicates few or no clouds below 12,000 feet with no
significant weather and/or obstructions to visibility.


ACROSS SOUTHEAST TEXAS

CITY           SKY/WX    TMP DP  RH WIND       PRES   REMARKS
BEAUMONT       CLOUDY    79  69  71 S15       29.93R
BEAUMONT CITY  PTSUNNY  N/A N/A N/A S10G20    29.94R
ORANGE         CLOUDY    76  71  83 S13       29.96R
JASPER           N/A     77  70  79 S10       29.96R
$$

ACROSS CENTRAL LOUISIANA

CITY           SKY/WX    TMP DP  RH WIND       PRES   REMARKS
LEESVILLE      PTSUNNY   75  63  64 S18       29.93R
FULLERTON      PTSUNNY   77  67  71 SW7       29.91R
ALEXANDRIA INT LGT RAIN  76  66  71 S14       29.92R
ESLER FIELD    CLOUDY    76  68  76 S8        29.94R
DERIDDER       FAIR      77  66  67 S14       29.96R HAZE
OAKDALE        PTSUNNY   77  67  72 S9G17     29.95R
OPELOUSAS      FAIR      79  66  65 MISG      29.96S
$$

ACROSS SOUTHWEST AND SOUTH CENTRAL LOUISIANA

CITY           SKY/WX    TMP DP  RH WIND       PRES   REMARKS
SULPHUR        CLOUDY    78  70  76 S14       29.96R
LAKE CHARLES   PTSUNNY   77  69  76 S15G23    29.95R
CHENNAULT INT  PTSUNNY   79  70  73 S12G20    29.95R
CAMERON PHI    SUNNY     75  72  88 S14G22    29.94R
DEQUINCY       CLOUDY    76  67  72 S12G18    29.95R
JENNINGS       PTSUNNY   77  68  73 S15G21    29.96R
LAFAYETTE      PTSUNNY   80  68  66 S14G21    29.97R
NEW IBERIA     MOSUNNY   78  67  68 S20G26    29.98S
ABBEVILLE      CLOUDY    77  72  83 S16G23    29.98R
PATTERSON      MOSUNNY   77  68  73 S18       30.00S
SALT POINT       N/A     75  69  81 SE9       29.98R
$$

SELECTED SITES ACROSS THE REGION

CITY           SKY/WX    TMP DP  RH WIND       PRES   REMARKS
HOUSTON BUSH   MOSUNNY   77  67  71 S14       29.92R
HOUSTON HOBBY  MOSUNNY   78  68  71 S14       29.92S
GALVESTON      PTSUNNY   78  73  84 S12       29.94R HAZE
COLLEGE STAT   CLOUDY    75  67  76 SW10      29.91R
CONROE         CLOUDY    78  66  66 S15       29.91R
HUNTSVILLE     CLOUDY    77  65  66 SW9       29.92R
LUFKIN         CLOUDY    74  66  76 SW10      29.92R
SHREVEPORT     CLOUDY    75  65  70 SW13      29.90R
MONROE         PTSUNNY   75  66  73 S10       29.93S
NATCHEZ MS     NOT AVBL
BATON ROUGE    SUNNY     79  66  64 S16G24    29.98F
N.O. INTL ARPT PTSUNNY   78  69  73 S16       30.01R
SLIDELL        PTSUNNY   79  68  69 SE17G23   30.02R
$$

MARINE REPORTS

STATION/POSITION TIME  SKY/WX   TEMP    WIND        PRES    VSBY
                                AIR SEA DIR/SP/G
                 (UTC)          (F)     (DEG/KT/KT) (MB)    (MI)
BUOY 30 S HIGH I 1450            73 72  160/ 10/ 14 1012.9
WVE H/P(F/S)=  4/ 7

SEA RIM ST PARK  1600            74     160/ 11/ 14 1014.2R
PORT ARTHUR      1548               72  170/  8/ 14 1014.1R
SABINE PASS N    1548            75 75  170/ 14/ 20 1015.1R
TEXAS POINT      NOT AVBL
CALCASIEU PASS   1548            74 74  170/ 13/ 18   N/A
LK CHARLES BEACH 1548            76 70              1014.5R
MARSH ISLAND     1500            74                   N/A
FRESH WATER LOCK 1548            73 74  150/ 16/ 20 1014.9R
AMERADA PASS     1548            75 63  150/  8/ 17 1015.6R
$$




USA.gov is the U.S. government's official web portal to all federal, state and local government web resources and services.